Location: Caltech
(34.1382°N, 118.1253°W)
Time: 18:51:37
(UTC-07:00)

AO-27 - Visible Passes

Search period start: 31 August 2015 00:00
Search period end: 10 September 2015 00:00
Orbit: 785 x 799 km, 98.7° (Epoch: 30 August)

Date Brightness Start Highest point End Pass type
(mag) Time Alt. Az. Time Alt. Az. Time Alt. Az.
31 Aug 8.7 03:35:03 10° N 03:38:18 40° N 03:38:18 40° N visible
01 Sep 9.4 03:06:14 10° NNE 03:08:55 30° NE 03:08:55 30° NE visible
01 Sep 9.4 04:47:15 10° NNW 04:49:40 16° NW 04:49:40 16° NW visible
02 Sep 10.1 02:37:52 10° NE 02:39:31 18° NE 02:39:31 18° NE visible
02 Sep 9.0 04:17:12 10° N 04:20:17 26° NW 04:20:17 26° NW visible
03 Sep 8.8 03:47:47 10° N 03:50:53 35° NNW 03:50:53 35° NNW visible
04 Sep 9.2 03:18:48 10° NNE 03:21:29 31° NNE 03:21:29 31° NNE visible
04 Sep 9.7 05:00:57 10° NW 05:02:15 12° NW 05:02:15 12° NW visible
05 Sep 9.9 02:50:13 10° NNE 02:52:06 21° NE 02:52:06 21° NE visible
05 Sep 9.2 04:30:14 10° NNW 04:32:51 21° NW 04:32:51 21° NW visible
06 Sep 10.5 02:22:18 10° NE 02:22:42 11° NE 02:22:42 11° NE visible
06 Sep 9.0 04:00:36 10° N 04:03:28 29° NNW 04:03:28 29° NNW visible
07 Sep 9.2 03:31:26 10° NNE 03:34:03 31° N 03:34:03 31° N visible
08 Sep 9.8 03:02:40 10° NNE 03:04:40 23° NE 03:04:40 23° NE visible
08 Sep 9.5 04:43:25 10° NNW 04:45:25 16° NW 04:45:25 16° NW visible
09 Sep 10.4 02:34:24 10° NE 02:35:16 14° NE 02:35:16 14° NE visible
09 Sep 9.2 04:13:30 10° N 04:16:01 24° NNW 04:16:01 24° NNW visible
